Location: Asheville, NC
(35.6000°N, 82.5500°W)
Time: 06:08:43
(UTC-04:00)

N. Korean satellite - Pass Details

Date: 13 October 2017
Orbit: 459 x 517 km, 97.2° (Epoch: 21 October)

Event Time Altitude Azimuth Distance (km) Brightness Sun altitude
Rises 19:44:41 0° 173° (S) 2,556 10.2 -10.5°
Reaches altitude 10° 19:46:47 10° 176° (S) 1,669 9.3 -10.9°
Maximum altitude 19:50:21 67° 259° (W) 527 7.0 -11.6°
Drops below altitude 10° 19:53:52 10° 343° (NNW) 1,649 9.5 -12.3°
Sets 19:55:56 0° 346° (NNW) 2,522 10.4 -12.8°
